Home   Weather   St. John's   Past weeks
Flag for Canada

Past Weather in St. John's, Newfoundland and Labrador, Canada — Yesterday and Last 2 Weeks

Now
14 °F

Clear.


Feels Like: 4 °F
Forecast: 22 / 12 °F
Wind: 7 mph from Northwest

Location: St. John's

Current Time: Jan 25, 2020 at 1:21:38 am

Latest Report: Jan 25, 2020 at 12:30 am


Visibility: 15 mi

Pressure: 30.42 "Hg

Humidity: 79%

Dew Point: 9 °F

Location of St. John'sLocation

Past Weather in St. John's — Graph

°F

St. John's Temperature Yesterday

Maximum temperature yesterday: 34 °F (at 12:30 pm)
Minimum temperature yesterday: 16 °F (at 11:30 pm)
Average temperature yesterday: 28 °F

High & Low Weather Summary for the Past Weeks

 TemperatureHumidityPressure
High39 °F (Jan 11, 11:30 pm)100% (Jan 11, 7:50 pm)30.56 "Hg (Jan 11, 7:50 pm)
Low3 °F (Jan 22, 4:30 am)57% (Jan 10, 2:30 pm)28.66 "Hg (Jan 17, 7:30 pm)
Average21 °F82%29.97 "Hg
* Reported Jan 9 11:30 pm — Jan 24 11:30 pm, St. John's. Weather by CustomWeather, © 2020

Note: Actual official high and low records may vary slightly from our data, if they occured in-between our weather recording intervals... More about our weather records

St. John's Weather History for the Previous 24 Hours

Scroll right to see more
 ConditionsComfort  
Time TempWeatherWind HumidityBarometerVisibility
11:30 pm
Fri, Jan 24
16 °FClear.7 mph73%30.42 "Hg15 mi
10:30 pm18 °FClear.6 mph73%30.41 "Hg15 mi
9:30 pm19 °FPassing clouds.7 mph68%30.41 "Hg15 mi
8:30 pm21 °FClear.9 mph63%30.39 "Hg15 mi
7:30 pm23 °FClear.9 mph63%30.37 "Hg15 mi
6:30 pm25 °FPassing clouds.13 mph69%30.34 "Hg15 mi
5:30 pm27 °FPassing clouds.13 mph69%30.32 "Hg15 mi
4:30 pm28 °FPassing clouds.13 mph69%30.29 "Hg15 mi
3:30 pm30 °FPartly sunny.14 mph69%30.25 "Hg15 mi
2:30 pm32 °FPartly sunny.14 mph69%30.22 "Hg15 mi
1:30 pm32 °FChilly.10 mph64%30.20 "HgN/A
12:30 pm34 °FChilly.10 mph65%30.18 "HgN/A
11:30 am32 °FChilly.13 mph69%30.17 "HgN/A
10:30 am32 °FChilly.9 mph75%30.16 "HgN/A
9:30 am30 °FChilly.10 mph80%30.14 "HgN/A
8:30 am30 °FScattered clouds.20 mph80%30.12 "Hg15 mi
8:03 am30 °FScattered clouds.20 mph80%30.09 "Hg15 mi
7:30 am30 °FPartly sunny.18 mph80%30.08 "Hg15 mi
6:56 am30 °FPartly cloudy.18 mph86%30.08 "Hg15 mi
6:30 am30 °FOvercast.18 mph93%30.07 "Hg15 mi
5:30 am30 °FLight snow. Overcast.18 mph93%30.05 "Hg15 mi
4:30 am30 °FLight snow. Low clouds.18 mph93%30.05 "Hg15 mi
3:30 am30 °FLight snow. Low clouds.21 mph93%30.05 "Hg15 mi
2:30 am30 °FLight snow. Low clouds.18 mph93%30.04 "Hg15 mi
1:30 am30 °FLight snow. Low clouds.17 mph86%30.05 "Hg15 mi
1:11 am28 °FLight snow. Low clouds.18 mph93%30.06 "Hg15 mi
Weather by CustomWeather, © 2020

See weather overview

Advertising